Weather History for Kirksville, MO

Change the Weather History Date:

Sunday, January 27, 2013

  Actual Average Record
Temperature  
Mean Temperature 40 °F 26 °F  
Max Temperature 51 °F 36 °F 64 °F (2002)
Min Temperature 28 °F 17 °F -17 °F (1936)
Degree Days  
Heating Degree Days 25 39  
Month to date heating degree days 1019 1053  
Since 1 July heating degree days 3261 3396  
Cooling Degree Days 0 0  
Month to date cooling degree days 0 0  
Year to date cooling degree days 0 0  
Moisture  
Dew Point 34 °F    
Average Humidity 79    
Maximum Humidity 100    
Minimum Humidity 58    
Precipitation  
Precipitation 0.26 in 0.06 in 0.95 in (1949)
Month to date precipitation 0.55 1.02  
Year to date precipitation 0.55 1.02  
Sea Level Pressure  
Sea Level Pressure 29.95 in    
Wind  
Wind Speed 10 mph (SE)    
Max Wind Speed 20 mph    
Max Gust Speed 26 mph    
Visibility 3 miles    
Events Fog , Rain    
T = Trace of Precipitation, MM = Missing Value Source: NWS Daily Summary

Daily Weather History Graph

Daily Weather History Graph

Search for Another Location

Airport:

Trip Planner

Search our weather history database for the weather conditions in past years. The results will help you decide how hot, cold, wet, or windy it might be!

Date:

Astronomy

Jan. 27, 2013 Rise Set
Actual Time 7:22 AM CST 5:23 PM CST
Civil Twilight 6:54 AM CST 5:52 PM CST
Nautical Twilight 6:21 AM CST 6:25 PM CST
Astronomical Twilight 5:49 AM CST 6:57 PM CST
Moon 6:18 PM CST (1/27) 7:16 AM CST (1/27)
Length of Visible Light 10h 58m
Length of Day
10h 00m
Full, 100% of the Moon is Illuminated
Jan 27
Full
Feb 3
Last Quarter
Feb 10
New
Feb 17
First Quarter
Feb 25
Full

Hourly Weather History & Observations

Time (CST) Temp. Windchill Dew Point Humidity Pressure Visibility Wind Dir Wind Speed Gust Speed Precip Events Conditions
12:55 AM 28.0 °F 18.1 °F 16.0 °F 61% 30.23 in 10.0 mi SE 11.5 mph - N/A   Clear
1:55 AM 30.0 °F 21.1 °F 17.1 °F 59% 30.22 in 10.0 mi SE 10.4 mph - N/A   Clear
2:55 AM 30.0 °F 20.0 °F 18.0 °F 61% 30.19 in 10.0 mi SE 12.7 mph - N/A   Clear
3:55 AM 32.0 °F 21.6 °F 19.0 °F 59% 30.16 in 10.0 mi SE 15.0 mph - N/A   Overcast
4:55 AM 30.9 °F 21.2 °F 24.1 °F 76% 30.14 in 5.0 mi SE 12.7 mph - 0.01 in   Overcast
5:05 AM 30.2 °F 21.3 °F 24.8 °F 80% 30.11 in 6.0 mi SE 10.4 mph - 0.01 in Rain Light Freezing Rain
5:55 AM 30.9 °F 22.2 °F 27.0 °F 85% 30.14 in 4.0 mi SE 10.4 mph - 0.07 in Rain Light Freezing Rain
6:10 AM 32.0 °F 25.6 °F 28.4 °F 87% 30.13 in 2.5 mi SSE 6.9 mph - 0.01 in Rain Light Freezing Rain
6:27 AM 30.2 °F 21.3 °F 28.4 °F 93% 30.12 in 2.5 mi SE 10.4 mph - 0.07 in   Overcast
6:34 AM 30.2 °F 21.3 °F 28.4 °F 93% 30.12 in 5.0 mi SE 10.4 mph - 0.08 in   Overcast
6:55 AM 30.9 °F 21.2 °F 28.9 °F 92% 30.15 in 6.0 mi SE 12.7 mph - 0.08 in   Overcast
7:35 AM 30.2 °F 18.9 °F 28.4 °F 93% 30.06 in 5.0 mi ESE 16.1 mph 21.9 mph 0.00 in   Overcast
7:55 AM 30.9 °F 19.4 °F 28.9 °F 92% 30.08 in 4.0 mi ESE 17.3 mph 24.2 mph 0.00 in   Overcast
8:17 AM 32.0 °F 20.8 °F 28.4 °F 87% 30.04 in 4.0 mi SE 17.3 mph - N/A   Overcast
8:35 AM 32.0 °F 20.1 °F 30.2 °F 93% 30.04 in 1.8 mi SE 19.6 mph 24.2 mph 0.01 in   Overcast
8:45 AM 32.0 °F 20.8 °F 30.2 °F 93% 30.03 in 3.0 mi SE 17.3 mph 24.2 mph 0.03 in   Overcast
8:55 AM 32.0 °F 21.2 °F 30.0 °F 92% 30.07 in 3.0 mi SE 16.1 mph - 0.03 in   Overcast
9:22 AM 32.0 °F 20.8 °F 30.2 °F 93% 30.03 in 2.0 mi SSE 17.3 mph 23.0 mph 0.00 in Rain Light Freezing Rain
9:29 AM 32.0 °F 20.8 °F 30.2 °F 93% 30.03 in 1.0 mi SSE 17.3 mph 21.9 mph 0.01 in Rain Light Freezing Rain
9:38 AM 32.0 °F 21.6 °F 30.2 °F 93% 30.02 in 0.8 mi SE 15.0 mph - 0.02 in Rain Light Freezing Rain
9:55 AM 32.0 °F 22.1 °F 30.9 °F 96% 30.05 in 1.0 mi SE 13.8 mph - 0.03 in Rain Light Freezing Rain
10:11 AM 32.0 °F 23.0 °F 30.2 °F 93% 30.01 in 1.8 mi SE 11.5 mph - 0.00 in   Overcast
10:18 AM 32.0 °F 22.5 °F 30.2 °F 93% 30.00 in 2.0 mi SE 12.7 mph - 0.00 in   Overcast
10:25 AM 32.0 °F 21.2 °F 30.2 °F 93% 30.00 in 1.5 mi SE 16.1 mph 23.0 mph 0.01 in   Overcast
10:53 AM 32.0 °F 23.0 °F 32.0 °F 100% 29.98 in 2.5 mi SE 11.5 mph - 0.02 in   Overcast
10:55 AM 32.0 °F 22.5 °F 32.0 °F 100% 30.02 in 3.0 mi SE 12.7 mph - 0.02 in   Overcast
11:10 AM 33.8 °F 24.8 °F 32.0 °F 93% 29.97 in 2.5 mi SE 12.7 mph 20.7 mph 0.00 in   Overcast
11:20 AM 33.8 °F 24.8 °F 32.0 °F 93% 29.97 in 2.0 mi SE 12.7 mph - 0.00 in Rain Light Rain
11:55 AM 33.1 °F 24.4 °F 32.0 °F 96% 29.99 in 2.5 mi SE 11.5 mph - 0.00 in   Overcast
12:55 PM 36.0 °F 28.5 °F 35.1 °F 97% 29.96 in 1.8 mi SSE 10.4 mph - N/A   Overcast
1:55 PM 37.9 °F 30.9 °F 37.0 °F 97% 29.90 in 1.5 mi SE 10.4 mph - 0.01 in   Overcast
2:55 PM 39.0 °F 32.8 °F 39.0 °F 100% 29.88 in 1.8 mi SE 9.2 mph - 0.00 in   Overcast
3:18 PM 41.0 °F 33.5 °F 39.2 °F 93% 29.83 in 2.0 mi SE 13.8 mph - N/A   Overcast
3:35 PM 41.0 °F 34.3 °F 39.2 °F 93% 29.83 in 2.0 mi SE 11.5 mph - N/A   Overcast
3:44 PM 41.0 °F 34.3 °F 39.2 °F 93% 29.83 in 1.8 mi SE 11.5 mph - N/A   Overcast
3:55 PM 41.0 °F 35.2 °F 39.9 °F 96% 29.86 in 1.5 mi SE 9.2 mph - N/A   Overcast
4:55 PM 41.0 °F 35.8 °F 39.9 °F 96% 29.84 in 1.5 mi ESE 8.1 mph - N/A   Overcast
5:11 PM 41.0 °F 37.1 °F 39.2 °F 93% 29.81 in 1.2 mi ESE 5.8 mph - N/A   Overcast
5:36 PM 39.2 °F 34.2 °F 39.2 °F 100% 29.80 in 1.0 mi ESE 6.9 mph - N/A   Mist
5:45 PM 39.2 °F 35.0 °F 39.2 °F 100% 29.80 in 1.8 mi ESE 5.8 mph - N/A   Partly Cloudy
5:52 PM 39.2 °F 34.2 °F 39.2 °F 100% 29.80 in 2.5 mi ESE 6.9 mph - N/A   Clear
5:55 PM 39.0 °F 33.4 °F 39.0 °F 100% 29.83 in 2.5 mi SE 8.1 mph - N/A   Clear
6:20 PM 37.4 °F 31.4 °F 37.4 °F 100% 29.79 in 0.8 mi ESE 8.1 mph - N/A   Clear
6:28 PM 39.2 °F 33.6 °F 39.2 °F 100% 29.79 in 0.5 mi ESE 8.1 mph - N/A Fog Fog
6:33 PM 39.2 °F 34.2 °F 39.2 °F 100% 29.79 in 1.0 mi ESE 6.9 mph - N/A   Clear
6:55 PM 39.9 °F - 39.0 °F 97% 29.85 in 1.2 mi Calm Calm - N/A   Clear
7:12 PM 39.2 °F - 37.4 °F 93% 29.82 in 0.5 mi Calm Calm - N/A Fog Fog
7:30 PM 37.4 °F 34.9 °F 37.4 °F 100% 29.82 in 0.2 mi East 3.5 mph - N/A Fog Fog
7:38 PM 37.4 °F 34.9 °F 37.4 °F 100% 29.82 in 0.2 mi ESE 3.5 mph - N/A Fog Fog
7:55 PM 37.9 °F - 37.9 °F 100% 29.86 in 0.2 mi Calm Calm - N/A Fog Fog
8:08 PM 39.2 °F 37.0 °F 39.2 °F 100% 29.83 in 0.8 mi ESE 3.5 mph - N/A   Overcast
8:15 PM 39.2 °F 35.0 °F 39.2 °F 100% 29.83 in 1.5 mi SE 5.8 mph - N/A   Overcast
8:34 PM 39.2 °F 35.0 °F 39.2 °F 100% 29.83 in 2.0 mi SE 5.8 mph - N/A   Overcast
8:51 PM 39.2 °F 35.0 °F 39.2 °F 100% 29.83 in 3.0 mi SSE 5.8 mph - N/A   Overcast
8:55 PM 41.0 °F 36.4 °F 39.9 °F 96% 29.86 in 4.0 mi SSE 6.9 mph - N/A   Overcast
9:14 PM 48.2 °F - 46.4 °F 93% 29.82 in 9.0 mi South 10.4 mph - N/A   Overcast
9:50 PM 48.2 °F - 46.4 °F 93% 29.82 in 10.0 mi South 11.5 mph - N/A   Overcast
9:55 PM 48.9 °F - 46.0 °F 90% 29.84 in 10.0 mi South 10.4 mph - N/A   Overcast
10:55 PM 50.0 °F - 48.0 °F 93% 29.85 in 10.0 mi South 8.1 mph - N/A   Overcast
11:55 PM 51.1 °F - 48.9 °F 92% 29.85 in 10.0 mi SSW 10.4 mph - 0.01 in   Overcast